Snowfall_Accumulation
nan nan nan nan nan nan nan nan nan nan nan nan nan nan nan nan nan 0.0 0.0 0.0 0.0 nan nan 0.0 0.0 0.0 0.0 0.0 0.0 0.0 0.0 0.0 0.0 0.0 0.0 0.0 0.0 0.0 0.0 0.0 0.0 0.0 0.0 0.0 0.0
nan nan nan nan nan nan nan nan nan nan nan nan nan nan nan nan 0.0 0.0 nan nan nan nan 0.0 0.0 0.0 0.0 0.0 0.0 0.0 0.0 0.0 0.0 0.0 0.0 0.0 0.0 0.0 0.0 0.0 0.0 0.0 0.0 0.0 0.0 0.0
nan nan nan nan nan nan nan nan nan nan nan nan nan nan nan 0.0 0.0 0.0 nan nan nan 0.0 0.0 0.0 0.0 0.0 0.0 0.0 0.0 0.0 0.0 0.0 0.0 0.0 0.0 0.0 0.0 0.0 0.0 0.0 0.0 0.0 0.0 0.0 0.0
nan nan nan nan nan nan nan nan nan nan nan nan nan nan nan 0.0 0.0 0.0 nan nan nan 0.0 0.0 0.0 0.0 0.0 0.0 0.0 0.0 0.0 0.0 0.0 0.0 0.0 0.0 0.0 0.0 0.0 0.0 0.0 0.0 0.0 0.0 0.0 0.0
nan nan nan nan nan nan nan nan nan nan nan nan nan nan 0.0 0.0 0.0 0.0 nan nan 0.0 0.0 0.0 0.0 0.0 0.0 0.0 0.0 0.0 0.0 0.0 0.0 0.0 0.0 0.0 0.0 0.0 0.0 0.0 0.0 0.0 0.0 0.0 0.0 0.0
nan nan nan nan nan nan nan nan nan nan nan nan nan nan 0.0 0.0 0.0 0.0 0.0 0.0 0.0 0.0 0.0 0.0 0.0 0.0 0.0 0.0 0.0 0.0 0.0 0.0 0.0 0.0 0.0 0.0 0.0 0.0 0.0 0.0 0.0 0.0 0.0 0.0 0.0
nan nan nan nan nan nan nan nan nan nan nan nan nan 0.0 0.0 0.0 0.0 0.0 0.0 0.0 0.0 0.0 0.0 0.0 0.0 0.0 0.0 0.0 0.0 0.0 0.0 0.0 0.0 0.0 0.0 0.0 0.0 0.0 0.0 0.0 0.0 0.0 0.0 0.0 0.0
nan nan nan nan nan nan nan nan nan nan nan nan nan 0.0 0.0 0.0 0.0 0.0 0.0 0.0 0.0 0.0 0.0 0.0 0.0 0.0 0.0 0.0 0.0 0.0 0.0 0.0 0.0 0.0 0.0 0.0 0.0 0.0 0.0 0.0 0.0 0.0 0.0 0.0 0.0
nan nan nan nan nan nan nan nan nan nan nan nan 0.0 0.0 0.0 nan 0.0 0.0 0.0 0.0 0.0 0.0 0.0 0.0 0.0 0.0 0.0 0.0 0.1 0.0 0.0 0.0 0.0 0.0 0.0 0.0 0.0 0.0 0.0 0.0 0.0 0.0 0.0 0.0 0.0
nan nan nan nan nan nan nan nan nan nan 0.0 0.0 0.0 0.0 0.0 0.0 0.0 0.0 0.0 0.0 0.0 0.0 0.0 0.0 0.0 0.0 0.0 0.3 2.4 0.1 0.1 0.0 0.0 0.0 0.0 0.0 0.0 0.0 0.0 0.0 0.0 0.0 0.0 0.0 0.0
nan nan nan nan nan nan 0.0 0.0 0.0 0.0 0.0 0.0 0.0 0.0 0.0 0.0 0.0 0.0 0.0 0.0 0.0 0.0 0.0 0.0 0.2 0.9 0.1 0.0 0.0 0.1 0.0 0.0 0.0 0.0 0.0 0.0 0.0 0.0 0.0 0.0 0.0 0.0 0.0 0.0 0.0
nan nan nan nan nan nan 0.0 0.0 0.0 0.0 1.7 0.0 0.0 0.0 0.0 0.0 0.0 0.0 0.0 0.0 0.0 0.2 0.0 0.6 1.6 0.0 0.0 0.0 0.3 0.6 0.7 0.6 0.0 0.0 0.0 0.0 0.0 0.0 0.0 0.0 0.0 0.0 0.0 0.0 0.0
nan nan nan nan nan 0.0 0.0 0.0 0.0 0.0 2.7 0.0 0.0 0.0 0.0 0.0 0.0 0.0 0.0 0.1 0.2 0.6 0.4 1.3 0.4 0.0 0.0 0.0 0.2 0.9 1.2 0.2 0.1 0.0 0.0 0.0 0.2 0.0 0.0 0.0 0.0 0.0 0.0 0.0 0.0
nan nan nan nan nan 0.0 0.0 0.0 0.0 0.0 11.9 1.3 0.0 0.0 0.0 0.0 0.0 0.0 0.0 0.1 0.2 2.0 0.2 1.7 0.0 0.1 1.0 1.6 0.2 0.8 0.0 0.1 0.4 3.1 3.5 0.2 9.6 0.0 0.0 0.0 0.0 0.0 0.0 0.0 0.0
nan nan nan nan 0.0 0.0 0.0 0.0 0.0 0.1 52.2 0.0 0.0 0.0 0.0 0.6 0.1 0.0 0.0 0.0 1.1 0.3 4.4 3.7 0.5 0.2 2.1 0.6 0.0 2.0 0.0 0.0 0.9 3.1 3.7 1.9 8.0 0.0 0.0 0.0 0.0 0.0 0.0 0.0 0.0
nan nan nan 0.0 0.0 0.0 0.0 0.0 0.0 25.2 43.9 0.3 0.0 0.0 0.1 0.0 0.1 0.0 0.0 0.0 0.0 1.7 1.3 0.7 0.0 2.3 1.6 0.2 0.0 0.1 0.7 0.6 2.3 5.4 34.5 1.7 0.9 0.2 0.1 0.2 0.0 0.0 0.0 0.0 0.0
nan nan nan 0.0 0.0 0.0 0.0 0.0 37.0 64.1 0.2 0.1 0.3 0.1 0.2 0.6 0.8 1.2 1.2 3.7 9.3 19.0 8.2 1.7 1.5 0.2 0.0 5.6 3.8 3.9 7.0 31.3 37.2 44.1 16.7 0.1 0.6 0.3 0.1 0.0 0.1 0.0 0.0 0.0 0.0
nan nan nan 0.0 0.0 0.0 0.0 4.4 64.4 9.1 2.0 0.0 0.0 0.0 1.8 0.3 1.3 2.9 4.2 5.0 1.3 7.5 9.7 6.6 9.8 2.1 0.2 1.2 3.6 3.1 5.4 10.9 15.4 11.2 2.8 0.1 9.9 1.2 0.1 0.2 0.7 0.3 0.4 0.0 0.0
nan 0.0 0.0 0.0 0.0 0.0 1.9 52.4 20.6 0.9 0.2 0.4 1.0 1.8 0.9 0.4 3.3 2.2 2.1 2.7 2.1 4.3 20.3 10.7 2.7 0.2 0.5 0.9 0.4 9.5 17.7 2.7 15.4 8.9 13.0 2.1 0.2 0.1 0.0 0.4 0.4 1.0 0.0 0.0 0.0
0.0 0.0 0.0 0.0 0.0 0.2 15.8 nan 4.6 0.0 0.4 1.5 6.1 3.5 8.1 3.6 5.3 3.1 2.3 1.4 3.1 1.7 1.7 6.0 12.8 0.4 1.4 2.0 1.4 1.7 0.2 14.2 22.5 30.3 14.4 2.2 0.9 3.1 1.7 2.9 0.3 1.8 0.1 0.1 0.0
0.0 1.7 0.0 0.0 0.0 4.0 30.7 11.1 1.6 0.0 0.2 6.4 5.0 6.0 2.3 7.6 2.1 3.6 1.4 0.4 0.3 0.3 0.4 8.5 13.7 6.0 2.5 13.4 8.3 5.8 7.2 4.1 3.4 10.5 17.3 9.9 7.0 8.8 3.3 3.4 4.5 0.9 0.2 0.3 0.2
0.3 11.7 0.0 0.0 10.9 9.9 12.8 3.7 nan 0.3 0.2 1.3 1.2 2.8 6.0 5.7 5.7 2.2 1.4 0.5 0.0 0.1 6.0 3.1 11.3 17.4 10.7 5.8 2.0 2.1 3.0 1.3 11.2 9.4 6.2 9.4 8.5 5.8 5.9 5.9 2.5 0.7 0.3 0.2 0.3
6.0 0.9 0.0 0.0 30.9 15.7 4.1 3.4 0.9 1.2 1.3 5.4 3.8 1.4 3.0 8.4 16.1 1.8 0.5 0.2 0.0 0.6 3.5 8.0 14.8 17.4 12.7 8.6 5.2 11.0 3.0 2.9 1.8 3.5 10.4 12.6 9.0 5.2 5.7 4.0 1.8 2.4 0.9 0.6 0.6
3.8 12.3 3.2 0.4 0.7 7.6 7.5 4.8 5.8 1.1 1.9 1.3 2.0 0.5 5.7 7.0 2.2 6.0 0.8 0.3 0.1 0.2 nan nan 7.0 14.3 15.6 12.8 11.7 13.7 8.8 5.1 3.8 20.9 9.2 11.7 9.0 7.7 6.3 6.0 3.4 2.2 1.4 2.2 3.8
3.6 12.3 12.0 24.7 5.7 2.4 3.8 2.9 2.2 6.7 2.5 0.9 5.1 4.1 7.0 13.9 7.5 7.5 0.9 0.9 1.0 nan 1.3 5.4 11.4 7.1 7.4 9.1 13.4 12.9 10.2 7.0 14.0 12.7 13.9 12.9 13.2 11.1 9.8 9.7 9.6 7.2 5.3 5.5 7.3
6.2 6.1 6.6 6.5 0.9 1.4 1.9 3.2 0.7 1.4 5.1 4.1 6.6 2.6 5.3 11.2 4.1 12.4 1.7 0.7 0.9 1.9 2.7 3.5 9.1 6.5 8.3 9.2 11.2 10.8 6.7 5.5 4.5 5.0 8.2 9.6 12.8 12.3 13.7 12.5 12.4 12.7 10.5 12.0 12.3
0.5 1.2 6.6 nan 1.1 5.5 1.8 1.2 1.2 1.0 0.1 0.0 0.8 3.1 5.3 3.2 1.7 0.8 1.3 1.6 2.3 4.4 3.5 5.5 7.9 11.6 19.1 6.0 6.7 16.1 19.8 10.1 13.2 9.4 6.4 14.2 16.0 17.7 19.3 16.2 15.2 14.7 15.1 14.5 14.6
Water_Equivalent
nan nan nan nan nan nan nan nan nan nan nan nan nan nan nan nan nan 0.00 0.00 0.00 0.00 nan nan 0.00 0.00 0.00 0.00 0.00 0.00 0.00 0.00 0.00 0.00 0.00 0.00 0.00 0.00 0.00 0.00 0.00 0.00 0.00 0.00 0.00 0.00
nan nan nan nan nan nan nan nan nan nan nan nan nan nan nan nan 0.00 0.00 nan nan nan nan 0.00 0.00 0.00 0.00 0.00 0.00 0.00 0.00 0.00 0.00 0.00 0.00 0.00 0.00 0.00 0.00 0.00 0.00 0.00 0.00 0.00 0.00 0.00
nan nan nan nan nan nan nan nan nan nan nan nan nan nan nan 0.00 0.00 0.00 nan nan nan 0.00 0.00 0.00 0.00 0.00 0.00 0.00 0.00 0.00 0.00 0.00 0.00 0.00 0.00 0.00 0.00 0.00 0.00 0.00 0.00 0.00 0.00 0.00 0.00
nan nan nan nan nan nan nan nan nan nan nan nan nan nan nan 0.00 0.00 0.00 nan nan nan 0.00 0.00 0.00 0.00 0.00 0.00 0.00 0.00 0.00 0.00 0.00 0.00 0.00 0.00 0.00 0.00 0.00 0.00 0.00 0.00 0.00 0.00 0.00 0.00
nan nan nan nan nan nan nan nan nan nan nan nan nan nan 0.00 0.00 0.00 0.00 nan nan 0.00 0.00 0.00 0.00 0.00 0.00 0.00 0.00 0.00 0.00 0.00 0.00 0.00 0.00 0.00 0.00 0.00 0.00 0.00 0.00 0.00 0.00 0.00 0.00 0.00
nan nan nan nan nan nan nan nan nan nan nan nan nan nan 0.00 0.00 0.00 0.00 0.00 0.00 0.00 0.00 0.00 0.00 0.00 0.00 0.00 0.00 0.00 0.00 0.00 0.00 0.00 0.00 0.00 0.00 0.00 0.00 0.00 0.00 0.00 0.00 0.00 0.00 0.00
nan nan nan nan nan nan nan nan nan nan nan nan nan 0.00 0.00 0.00 0.00 0.00 0.00 0.00 0.00 0.00 0.00 0.00 0.00 0.00 0.00 0.00 0.00 0.00 0.00 0.00 0.00 0.00 0.00 0.00 0.00 0.00 0.00 0.00 0.00 0.00 0.00 0.00 0.00
nan nan nan nan nan nan nan nan nan nan nan nan nan 0.00 0.00 0.00 0.00 0.00 0.00 0.00 0.00 0.00 0.00 0.00 0.00 0.00 0.00 0.00 0.00 0.00 0.00 0.00 0.00 0.00 0.00 0.00 0.00 0.00 0.00 0.00 0.00 0.00 0.00 0.00 0.00
nan nan nan nan nan nan nan nan nan nan nan nan 0.00 0.00 0.00 nan 0.00 0.00 0.00 0.00 0.00 0.00 0.00 0.00 0.00 0.00 0.00 0.00 0.02 0.00 0.00 0.00 0.00 0.00 0.00 0.00 0.00 0.00 0.00 0.00 0.00 0.00 0.00 0.00 0.00
nan nan nan nan nan nan nan nan nan nan 0.00 0.00 0.00 0.00 0.00 0.00 0.00 0.00 0.00 0.00 0.00 0.00 0.00 0.00 0.00 0.00 0.00 0.04 0.54 0.02 0.01 0.00 0.00 0.00 0.00 0.00 0.00 0.00 0.00 0.00 0.00 0.00 0.00 0.00 0.00
nan nan nan nan nan nan 0.00 0.00 0.00 0.00 0.00 0.00 0.00 0.00 0.00 0.00 0.00 0.00 0.00 0.00 0.00 0.00 0.00 0.00 0.04 0.14 0.02 0.00 0.00 0.02 0.00 0.00 0.00 0.00 0.00 0.00 0.00 0.00 0.00 0.00 0.00 0.00 0.00 0.00 0.00
nan nan nan nan nan nan 0.00 0.00 0.00 0.00 0.25 0.00 0.00 0.00 0.00 0.00 0.00 0.00 0.00 0.00 0.00 0.04 0.00 0.11 0.24 0.01 0.00 0.00 0.04 0.08 0.09 0.08 0.00 0.00 0.00 0.00 0.00 0.00 0.00 0.00 0.00 0.00 0.00 0.00 0.00
nan nan nan nan nan 0.00 0.00 0.00 0.00 0.00 0.46 0.00 0.00 0.00 0.00 0.00 0.00 0.00 0.00 0.02 0.04 0.11 0.10 0.20 0.09 0.00 0.00 0.00 0.04 0.12 0.15 0.03 0.01 0.00 0.00 0.00 0.04 0.00 0.00 0.00 0.00 0.00 0.00 0.00 0.00
nan nan nan nan nan 0.00 0.00 0.00 0.00 0.00 2.19 0.27 0.00 0.00 0.00 0.00 0.01 0.00 0.00 0.01 0.03 0.36 0.04 0.35 0.01 0.02 0.14 0.19 0.02 0.13 0.00 0.02 0.06 0.52 0.50 0.03 1.28 0.00 0.00 0.00 0.00 0.00 0.00 0.00 0.00
nan nan nan nan 0.00 0.00 0.00 0.00 0.00 0.01 8.43 0.00 0.00 0.00 0.00 0.11 0.03 0.01 0.00 0.00 0.20 0.04 0.73 0.62 0.10 0.03 0.39 0.08 0.00 0.33 0.00 0.00 0.13 0.52 0.52 0.27 1.06 0.00 0.00 0.00 0.00 0.00 0.00 0.00 0.00
nan nan nan 0.00 0.00 0.00 0.00 0.00 0.00 5.78 8.20 0.05 0.00 0.01 0.01 0.00 0.01 0.00 0.00 0.00 0.00 0.34 0.27 0.11 0.00 0.41 0.30 0.03 0.00 0.01 0.12 0.11 0.41 0.82 4.66 0.24 0.14 0.03 0.03 0.04 0.00 0.00 0.00 0.00 0.00
nan nan nan 0.00 0.01 0.00 0.00 0.00 9.25 14.60 0.06 0.02 0.10 0.02 0.04 0.13 0.20 0.37 0.26 0.68 1.33 2.69 1.08 0.31 0.27 0.05 0.00 0.84 0.71 0.63 0.99 4.26 5.40 6.20 2.28 0.02 0.10 0.05 0.01 0.01 0.01 0.01 0.00 0.00 0.00
nan nan nan 0.00 0.00 0.00 0.00 0.70 15.46 2.77 0.51 0.00 0.01 0.01 0.29 0.05 0.21 0.56 0.85 0.74 0.23 1.19 1.39 1.03 1.73 0.34 0.04 0.19 0.58 0.48 0.76 1.45 1.55 1.27 0.45 0.01 1.36 0.23 0.04 0.04 0.13 0.06 0.09 0.00 0.00
nan 0.00 0.00 0.00 0.00 0.00 0.39 13.26 5.41 0.23 0.04 0.05 0.12 0.29 0.17 0.08 0.49 0.33 0.35 0.54 0.34 0.61 2.60 1.53 0.49 0.03 0.09 0.14 0.06 1.36 2.34 0.41 1.79 1.08 1.30 0.41 0.04 0.02 0.01 0.08 0.07 0.18 0.00 0.00 0.00
0.00 0.00 0.00 0.00 0.00 0.08 3.67 nan 1.68 0.01 0.07 0.22 0.77 0.48 1.39 0.57 0.70 0.40 0.34 0.23 0.42 0.25 0.28 0.97 1.73 0.06 0.22 0.35 0.26 0.28 0.04 1.73 3.17 3.41 1.49 0.31 0.13 0.54 0.25 0.43 0.05 0.27 0.03 0.02 0.01
0.01 0.41 0.00 0.00 0.00 0.70 8.58 3.45 0.50 0.00 0.03 1.07 0.90 0.79 0.32 1.17 0.28 0.48 0.21 0.06 0.05 0.06 0.09 1.63 2.00 0.84 0.38 2.41 1.43 0.86 0.99 0.60 0.47 1.39 1.96 1.07 1.09 1.80 0.44 0.43 0.51 0.14 0.04 0.05 0.03
0.07 3.62 0.00 0.00 3.11 3.29 3.69 1.15 nan 0.07 0.04 0.20 0.17 0.41 0.89 0.92 0.82 0.29 0.19 0.07 0.00 0.02 1.01 0.57 1.68 2.35 1.86 1.11 0.30 0.29 0.56 0.22 1.74 1.21 0.92 1.21 1.00 1.04 0.75 0.74 0.35 0.10 0.06 0.05 0.05
1.11 0.20 0.00 0.00 8.38 4.91 1.25 0.61 0.17 0.22 0.25 0.76 0.58 0.22 0.52 1.43 2.35 0.31 0.09 0.03 0.00 0.12 0.58 1.31 1.98 2.51 1.96 1.31 0.75 1.50 0.45 0.47 0.26 0.58 1.42 1.78 1.28 0.74 0.73 0.59 0.28 0.35 0.14 0.10 0.11
0.74 3.37 1.11 0.14 0.20 1.10 1.22 0.95 1.19 0.20 0.30 0.21 0.28 0.09 0.94 1.23 0.37 1.07 0.14 0.05 0.02 0.05 nan nan 0.97 1.68 1.90 1.82 1.80 1.64 1.03 0.67 0.53 3.47 1.49 1.33 1.18 1.01 0.79 0.78 0.51 0.39 0.22 0.32 0.51
0.72 3.50 4.66 7.67 1.61 0.37 0.54 0.49 0.42 1.15 0.39 0.19 0.80 0.74 1.05 1.85 1.08 1.19 0.15 0.16 0.18 nan 0.29 0.95 1.65 0.81 0.95 1.13 1.84 1.78 1.21 0.76 1.56 1.56 1.73 1.55 1.32 1.37 1.25 1.17 1.19 1.03 0.71 0.64 0.85
0.97 1.07 1.31 1.88 0.13 0.24 0.34 0.51 0.11 0.23 0.71 0.65 1.05 0.48 0.87 1.56 0.72 1.72 0.26 0.11 0.11 0.33 0.43 0.57 1.60 0.73 1.11 1.17 1.51 1.40 0.81 0.70 0.53 0.57 0.97 1.16 1.41 1.81 1.67 1.47 1.51 1.64 1.16 1.17 1.30
0.10 0.27 1.07 nan 0.26 1.05 0.38 0.17 0.17 0.18 0.02 0.00 0.11 0.51 0.76 0.55 0.31 0.14 0.22 0.27 0.36 0.64 0.49 0.79 1.08 2.34 3.85 0.71 0.73 2.81 2.21 1.15 1.52 1.19 0.80 1.47 2.60 2.66 2.59 1.81 1.85 1.68 1.57 1.57 1.92
SL_Ratio
nan nan nan nan nan nan nan nan nan nan nan nan nan nan nan nan nan nan nan nan nan nan nan nan nan nan nan nan nan nan nan nan nan nan nan nan nan nan nan nan nan nan nan nan nan
nan nan nan nan nan nan nan nan nan nan nan nan nan nan nan nan nan nan nan nan nan nan nan nan nan nan nan nan nan nan nan nan nan nan nan nan nan nan nan nan nan nan nan nan nan
nan nan nan nan nan nan nan nan nan nan nan nan nan nan nan nan nan nan nan nan nan nan nan nan nan nan nan nan nan nan nan nan nan nan nan nan nan nan nan nan nan nan nan nan nan
nan nan nan nan nan nan nan nan nan nan nan nan nan nan nan nan nan nan nan nan nan nan nan nan nan nan nan nan nan nan nan nan nan nan nan nan nan nan nan nan nan nan nan nan nan
nan nan nan nan nan nan nan nan nan nan nan nan nan nan nan nan nan nan nan nan nan nan nan nan nan nan nan nan nan nan nan nan nan nan nan nan nan nan nan nan nan nan nan nan nan
nan nan nan nan nan nan nan nan nan nan nan nan nan nan nan 6.7 nan nan nan nan nan nan nan nan nan nan nan nan nan nan nan nan nan nan nan nan nan nan nan nan nan nan nan nan nan
nan nan nan nan nan nan nan nan nan nan nan nan nan nan nan nan nan nan nan nan nan nan nan nan nan nan nan nan nan nan nan nan nan nan nan nan nan nan nan nan nan nan nan nan nan
nan nan nan nan nan nan nan nan nan nan nan nan nan nan nan nan nan nan nan nan nan nan nan nan nan nan nan nan nan nan nan 7.5 nan nan nan nan 0.0 nan nan nan nan nan nan nan nan
nan nan nan nan nan nan nan nan nan nan nan nan nan nan nan nan nan nan nan nan nan nan nan nan nan nan nan 10.0 5.8 5.0 8.3 nan nan nan nan nan nan nan nan nan nan nan nan nan nan
nan nan nan nan nan nan nan nan nan nan nan nan nan nan nan nan nan nan nan nan nan nan nan nan nan 7.5 5.0 7.1 4.5 6.6 8.1 nan nan nan nan nan nan nan nan nan nan nan nan nan nan
nan nan nan nan nan nan nan nan nan nan nan nan nan nan nan nan nan nan nan nan nan nan 2.5 nan 6.6 6.2 6.2 5.0 nan 7.3 5.0 nan nan nan nan nan nan nan nan nan nan nan nan nan nan
nan nan nan nan nan nan nan nan 6.3 5.0 6.7 nan nan nan nan nan nan nan nan nan nan 4.6 5.0 5.2 6.9 5.0 nan 5.0 7.0 7.4 7.8 7.4 nan nan 5.0 nan nan nan nan nan nan nan nan nan nan
nan nan nan nan nan nan nan nan nan nan 5.8 nan nan nan nan nan nan nan nan 5.2 6.0 5.5 4.4 6.3 5.0 nan 5.0 nan 7.0 7.1 7.7 7.8 7.1 nan nan 6.4 4.8 4.0 nan nan nan nan nan nan nan
nan nan nan nan nan nan nan nan nan nan 5.4 4.8 nan nan 5.0 nan 5.8 nan nan 6.3 6.4 5.4 4.4 4.8 3.9 6.4 7.3 8.4 7.4 6.0 5.0 7.0 7.0 6.0 7.1 4.8 7.5 nan nan nan nan nan nan nan nan
nan nan nan nan nan nan nan nan nan 6.0 6.2 nan nan nan nan 6.0 3.9 5.8 nan 5.0 5.4 6.1 5.9 6.0 4.7 5.6 5.5 6.8 5.0 6.2 nan 6.0 6.8 6.0 7.2 7.3 7.6 5.0 nan nan nan nan nan nan nan
nan nan nan nan nan nan nan nan 5.0 4.4 5.3 5.1 nan 4.5 4.1 4.0 4.1 5.0 5.0 nan nan 5.0 4.8 6.1 nan 5.6 5.3 5.5 nan 4.6 5.4 5.3 5.5 6.6 7.4 7.0 6.7 5.4 5.0 4.9 nan nan nan nan nan
nan nan nan nan 3.1 nan nan 0.0 4.0 4.4 3.6 5.6 3.1 5.3 4.2 4.5 4.1 3.3 4.6 5.4 7.0 7.0 7.7 5.5 5.5 4.6 5.0 6.7 5.3 6.2 7.1 7.4 6.9 7.1 7.4 4.9 6.1 6.4 4.8 3.8 3.9 4.0 nan 3.6 nan
nan nan nan nan nan nan 3.8 6.2 4.2 3.3 3.9 nan 6.3 6.1 6.1 5.8 6.1 5.2 4.9 6.8 5.7 6.3 7.0 6.4 5.6 6.2 4.5 6.3 6.1 6.4 7.0 7.5 10.0 8.8 6.2 5.0 7.3 5.0 4.1 4.0 5.0 4.6 4.2 5.0 nan
nan nan nan nan nan 5.0 4.8 3.9 3.8 3.8 5.8 8.4 8.4 6.2 4.9 5.6 6.8 6.7 5.9 5.1 6.1 7.1 7.8 7.0 5.6 5.0 5.6 6.6 7.0 7.0 7.6 6.6 8.6 8.2 10.0 5.2 5.8 4.7 4.3 5.1 5.5 5.4 nan 5.0 5.0
nan nan nan nan nan 2.9 4.3 nan 2.8 4.6 6.5 6.9 7.9 7.2 5.9 6.3 7.7 7.8 6.9 6.1 7.5 6.7 6.0 6.2 7.4 6.0 6.4 5.6 5.3 5.8 5.6 8.2 7.1 8.9 9.7 7.1 6.6 5.8 6.6 6.9 6.7 6.8 5.2 4.2 3.3
2.2 4.1 nan nan nan 5.7 3.6 3.2 3.2 nan 5.0 6.0 5.5 7.6 7.1 6.5 7.5 7.5 6.8 6.6 5.3 5.1 4.7 5.2 6.9 7.2 6.6 5.6 5.8 6.7 7.2 6.9 7.2 7.6 8.8 9.3 6.4 4.9 7.4 7.8 8.7 6.2 5.5 5.5 5.2
3.7 3.2 nan nan 3.5 3.0 3.5 3.2 nan 4.2 4.1 6.4 7.1 7.0 6.8 6.2 7.0 7.6 7.4 7.3 5.0 4.6 6.0 5.4 6.7 7.4 5.8 5.2 6.6 7.2 5.3 5.8 6.4 7.8 6.8 7.7 8.5 5.6 7.9 8.0 7.2 6.5 5.7 4.9 5.1
5.4 4.7 5.0 nan 3.7 3.2 3.2 5.6 5.5 5.5 5.0 7.1 6.5 6.4 5.9 5.8 6.8 6.0 6.2 4.7 5.0 5.3 6.2 6.1 7.5 6.9 6.5 6.5 7.0 7.3 6.8 6.3 7.1 6.0 7.3 7.1 7.1 7.0 7.8 6.8 6.4 6.9 6.0 5.5 5.3
5.1 3.6 2.9 3.2 3.6 7.0 6.1 5.0 4.9 5.6 6.3 6.2 7.2 6.1 6.1 5.7 5.8 5.6 5.9 5.1 4.3 4.1 nan nan 7.2 8.5 8.2 7.1 6.5 8.4 8.5 7.7 7.1 6.0 6.2 8.7 7.6 7.6 7.9 7.7 6.7 5.7 6.4 7.0 7.4
5.1 3.5 2.6 3.2 3.5 6.3 6.9 5.9 5.1 5.8 6.3 4.8 6.3 5.6 6.7 7.5 6.9 6.3 6.1 5.9 5.3 nan 4.5 5.7 6.9 8.8 7.8 8.0 7.3 7.3 8.4 9.2 9.0 8.2 8.0 8.3 10.0 8.1 7.9 8.3 8.0 7.0 7.5 8.6 8.6
6.4 5.7 5.0 3.4 6.6 5.9 5.8 6.3 6.4 5.9 7.1 6.2 6.3 5.4 6.1 7.2 5.7 7.2 6.5 6.5 8.0 5.7 6.3 6.2 5.7 8.8 7.4 7.9 7.5 7.7 8.4 7.8 8.5 8.9 8.5 8.3 9.0 6.8 8.2 8.5 8.2 7.8 9.1 10.2 9.5
4.4 4.4 6.2 nan 4.4 5.2 4.6 6.8 6.9 5.8 4.0 6.7 6.9 6.2 7.0 5.8 5.4 5.6 5.9 5.9 6.3 7.0 7.1 7.1 7.3 5.0 5.0 8.5 9.2 5.7 8.9 8.8 8.7 7.9 8.1 9.7 6.2 6.6 7.4 9.0 8.2 8.7 9.6 9.2 7.6